World > North America > United States > Iowa > Douglas  

Douglas, IA Hourly Weather Updates

Feedback E-mail the Weather

Quick Clicks

Douglas, IA Weather Maps

°F °C°F °C
Douglas Weather Map
UTC Time: 5/27/2024, 10:05
Your Time:

Douglas, IA Regional Weather

Expires:202405271100;;956820
ASUS43 KDMX 271001
RWRIA 

WEATHER ROUNDUP FOR IOWA
NATIONAL WEATHER SERVICE DES MOINES IA
500 AM CDT MON MAY 27 2024

NOTE: "FAIR" INDICATES FEW OR NO CLOUDS BELOW 12,000 FEET WITH NO
SIGNIFICANT WEATHER AND/OR OBSTRUCTIONS TO VISIBILITY.

* - THESE STATIONS ARE NOT NWS STATIONS...THUS NOT UNDER NWS
QUALITY CONTROL.  THEY ALSO DO NOT REPORT WEATHER SUCH 
AS PRECIPITATION OR FOG.  


IAZ007>011-017>019-026>030-037>042-050>054-066-271100-
   NORTHEAST IOWA
  
CITY           SKY/WX    TMP DP  RH WIND       PRES   REMARKS
CEDAR RAPIDS   CLEAR     53  51  93 NW13      29.70S TC  12           
CHARLES CITY * CLEAR     50  50 100 NW6       29.74S TC  10           
CLINTON *      CLEAR     55  32  41 NW15      29.66R TC  13           
DECORAH *      CLEAR     50  50 100 CALM      29.70R TC  10           
DUBUQUE        CLEAR     53  50  89 NW10      29.67R TC  12           
WATERLOO       CLEAR     52  49  89 NW8       29.73R TC  11           
$$
 

SKY/WX - Weather  TMP - Temperature  DP - Dew Point  RH - Humidity
WIND - Wind Direction/Speed PRES - Barometric Pressure VSB - Visibility
WCI - Wind Chill Index E13G22 Wind - East Wind 13 mph/Gusts of 22 mph

Trending Headlines

Trending Entertainment Headlines

Douglas Radar Loop

Use the map search tool if you want to place a location marker on the radar map...

Douglas Quick Facts

National Two Day Weather Forecast


E-mail the Douglas Weather Forecast

Voice your opinion or tell us about page issues...